Preview of NWS' New Version of Forecast
This preview is not operational and should not be used for support decisions.

Regional Weather Roundup (RWR)

Issued by National Weather Service (NWS)

                            
000
ASUS44 KMEG 240600
RWRTN 
TENNESSEE HOURLY STATE WEATHER ROUNDUP
NATIONAL WEATHER SERVICE MEMPHIS TN
100 AM CDT SUN MAR 24 2019

TNZ002-004-019-021-049-052-054-088>092-240700-
WEST TENNESSEE
  
CITY           SKY/WX    TMP DP  RH WIND       PRES   REMARKS
MEMPHIS INTL   CLOUDY    58  35  42 CALM      30.16F                  
NWS MEMPHIS      N/A     54 N/A N/A MISG        N/A                   
JACKSON        FAIR      51  38  60 E3        30.20F                  
DYERSBURG      FAIR      55  38  52 E5        30.19F                  
$$

TNZ008-025-027-028-033-062-065-066-240700-
NORTH MIDDLE TENNESSEE
  
CITY           SKY/WX    TMP DP  RH WIND       PRES   REMARKS
NASHVILLE      MOCLDY    49  28  44 CALM      30.23S                  
CLARKSVILLE    FAIR      46  27  47 CALM      30.24R                  
SMYRNA         FAIR      42  34  73 CALM      30.25R                  
CROSSVILLE     FAIR      42  15  33 S3        30.24F                  
$$

TNZ061-075-076-078-094-096-097-240700-
SOUTH MIDDLE TENNESSEE
  
CITY           SKY/WX    TMP DP  RH WIND       PRES   REMARKS
FAYETTEVILLE   CLEAR     48  25  40 CALM      30.21F                  
$$

TNZ017-018-042-046-047-240700-
NORTHEAST TENNESSEE
  
CITY           SKY/WX    TMP DP  RH WIND       PRES   REMARKS
TRI CITIES     CLOUDY    33  26  75 CALM      30.28S                  
$$

TNZ012-013-036-069-073-074-240700-
CENTRAL EAST TENNESSEE
  
CITY           SKY/WX    TMP DP  RH WIND       PRES   REMARKS
KNOXVILLE      FAIR      44  25  47 CALM      30.24F                  
OAK RIDGE      FAIR      39  29  67 CALM      30.27F                  
$$

TNZ083-085-099-240700-
SOUTHEAST TENNESSEE
  
CITY           SKY/WX    TMP DP  RH WIND       PRES   REMARKS
CHATTANOOGA    FAIR      44  34  67 CALM      30.25S                  
$$

SKY/WX REPORTED AS FAIR MEANS FEW OR NO CLOUDS BELOW
12 THOUSAND FEET.